15 daagse weersverwachting Ballina (IE)

  • Overzicht
  • Per uur
  • 15 dagen
  • Extra
  • Vergelijk
  • Kaarten
  • Dagkaart
  • Meer »
  • Info
  • Statistieken
  • Directe link
    Temp 6h Neerslag Wind  
 05:05     22:12    Daglengte: 17:07 Vandaag
01:00
11°
 
4
07:00
12°
1.1 mm
6
13:00
15°
4.4 mm
6
19:00
15°
 
6
 05:05     22:12    Daglengte: 17:07 Morgen
01:00
11°
 
4
07:00
11°
 
4
13:00
16°
1.9 mm
5
19:00
15°
 
4
 05:05     22:13    Daglengte: 17:08 Woensdag 19 Jun
01:00
10°
 
3
07:00
11°
 
3
13:00
14°
8.2 mm
5
19:00
13°
12.1 mm
6
Locatie info
Region: Connaught
Latitude: 54.1167°N
Longitude: -9.1667°E
32 masl
Temp/Neerslag /Baro Onweer/Dauwpunt
    Temp Baro 1h Neerslag Dauwpunt Wind UV Bewolking  
 05:05     22:12    Daglengte: 17:07 Vandaag
01:00
11°
1005.9 hPa
48%
9.3°
4
Windvlaag: 3.6 km/h
23%
02:00
11°
1005.8 hPa
23%
9.3°
5
Windvlaag: 3.5 km/h
33%
03:00
10°
1005.7 hPa
30%
9.2°
5
Windvlaag: 3.8 km/h
46%
04:00
11°
1005.4 hPa
29%
9.3°
5
Windvlaag: 4.2 km/h
55%
05:00
11°
1005.3 hPa 1.1 mm
68%
9.5°
5
Windvlaag: 4.4 km/h
53%
06:00
11°
1005.3 hPa
26%
9.7°
6
Windvlaag: 5.1 km/h
53%
07:00
12°
1005.4 hPa
32%
9.6°
6
Windvlaag: 4.8 km/h
27%
08:00
12°
1005.6 hPa
38%
9.8°
7
Windvlaag: 5.7 km/h
59%
09:00
13°
1005.9 hPa
38%
10.3°
7
Windvlaag: 5.9 km/h
39%
10:00
13°
1006.6 hPa 1.3 mm
35%
11.4°
6
Windvlaag: 5.3 km/h
61%
11:00
14°
1007.1 hPa 1.5 mm
76%
11.1°
6
Windvlaag: 5 km/h
61%
12:00
14°
1007.9 hPa 1.5 mm
74%
11.1°
6
Windvlaag: 4 km/h
54%
13:00
15°
1008.3 hPa
36%
11.3°
6
Windvlaag: 3.2 km/h
43%
14:00
15°
1008.7 hPa
38%
11.2°
6
Windvlaag: 2.8 km/h
45%
15:00
15°
1009.0 hPa
40%
11.2°
6
Windvlaag: 3 km/h
51%
16:00
15°
1009.1 hPa
39%
10.9°
6
Windvlaag: 3.2 km/h
20%
17:00
16°
1009.2 hPa
32%
10.3°
6
Windvlaag: 3.3 km/h
16%
18:00
15°
1009.4 hPa
24%
10.1°
6
Windvlaag: 3.3 km/h
21%
19:00
15°
1009.7 hPa
15%
9.8°
6
Windvlaag: 3.4 km/h
20%
20:00
14°
1009.8 hPa
21%
9.7°
5
Windvlaag: 3.3 km/h
7%
21:00
13°
1010.2 hPa
22%
9.7°
5
Windvlaag: 3.1 km/h
7%
22:00
12°
1010.7 hPa
20%
9.7°
4
Windvlaag: 3.3 km/h
5%
23:00
11°
1011.1 hPa
19%
9.8°
4
Windvlaag: 3.3 km/h
3%
 05:05     22:12    Daglengte: 17:07 Morgen
00:00
11°
1011.1 hPa
14%
9.7°
3
Windvlaag: 3.4 km/h
2%
01:00
11°
1011.1 hPa
14%
9.6°
4
Windvlaag: 3.6 km/h
7%
02:00
10°
1011.0 hPa
14%
9.4°
4
Windvlaag: 3.7 km/h
10%
03:00
10°
1010.7 hPa
14%
9.3°
4
Windvlaag: 3.9 km/h
14%
04:00
10°
1010.6 hPa
17%
9.3°
4
Windvlaag: 4.1 km/h
35%
05:00
10°
1010.5 hPa
62%
9.3°
4
Windvlaag: 4 km/h
69%
06:00
11°
1010.7 hPa
73%
9.5°
4
Windvlaag: 3.6 km/h
61%
07:00
11°
1010.9 hPa
75%
9.7°
4
Windvlaag: 3.2 km/h
59%
08:00
12°
1011.0 hPa
76%
9.7°
4
Windvlaag: 2.8 km/h
46%
09:00
13°
1011.2 hPa 1.9 mm
78%
9.4°
5
Windvlaag: 2.8 km/h
49%
10:00
14°
1011.2 hPa
75%
9.3°
4
Windvlaag: 2.6 km/h
49%
11:00
15°
1011.2 hPa
77%
10.0°
4
Windvlaag: 2.3 km/h
30%
12:00
15°
1011.2 hPa
72%
10.7°
4
Windvlaag: 2.3 km/h
31%
13:00
16°
1011.2 hPa
34%
11.0°
5
Windvlaag: 2.7 km/h
40%
14:00
16°
1011.1 hPa
26%
10.9°
5
Windvlaag: 3 km/h
39%
15:00
16°
1011.0 hPa
32%
10.9°
5
Windvlaag: 2.6 km/h
58%
16:00
16°
1010.9 hPa
72%
10.6°
5
Windvlaag: 2.3 km/h
28%
17:00
16°
1010.8 hPa
75%
10.4°
5
Windvlaag: 2.5 km/h
23%
18:00
15°
1010.8 hPa
69%
10.3°
5
Windvlaag: 2.7 km/h
13%
19:00
15°
1010.8 hPa
28%
10.1°
4
Windvlaag: 2.7 km/h
12%
20:00
14°
1010.8 hPa
29%
9.7°
4
Windvlaag: 2.7 km/h
20%
21:00
13°
1010.8 hPa
23%
9.6°
3
Windvlaag: 2.5 km/h
39%
22:00
12°
1010.6 hPa
22%
9.8°
3
Windvlaag: 2.5 km/h
37%
23:00
11°
1010.5 hPa
21%
9.7°
3
Windvlaag: 2.8 km/h
28%
 05:05     22:13    Daglengte: 17:08 Woensdag 19 Jun
00:00
11°
1010.3 hPa
21%
9.6°
3
Windvlaag: 2.7 km/h
30%
01:00
10°
1010.0 hPa
21%
9.5°
3
Windvlaag: 2.6 km/h
39%
02:00
10°
1009.7 hPa
21%
9.5°
2
Windvlaag: 2.3 km/h
54%
03:00
10°
1009.1 hPa
23%
9.5°
3
Windvlaag: 2.2 km/h
48%
04:00
10°
1008.8 hPa
29%
9.6°
3
Windvlaag: 2 km/h
56%
05:00
10°
1008.5 hPa
28%
9.6°
3
Windvlaag: 2 km/h
55%
06:00
11°
1008.3 hPa
70%
9.7°
3
Windvlaag: 2.2 km/h
64%
07:00
11°
1008.3 hPa
42%
9.9°
3
Windvlaag: 2.3 km/h
80%
08:00
12°
1007.9 hPa
39%
9.9°
3
Windvlaag: 1.1 km/h
74%
09:00
13°
1007.8 hPa
40%
10.1°
4
Windvlaag: 0.9 km/h
94%
10:00
13°
1007.5 hPa 3.0 mm
37%
10.3°
4
Windvlaag: 1 km/h
87%
11:00
14°
1007.5 hPa 3.2 mm
39%
10.4°
5
Windvlaag: 1 km/h
74%
12:00
14°
1007.4 hPa
88%
10.2°
5
Windvlaag: 1.1 km/h
78%
13:00
14°
1007.4 hPa 1.9 mm
99%
10.7°
5
Windvlaag: 1.2 km/h
79%
14:00
14°
1007.2 hPa 3.5 mm
97%
10.0°
6
Windvlaag: 1.4 km/h
65%
15:00
14°
1007.1 hPa 3.2 mm
92%
10.3°
6
Windvlaag: 1.3 km/h
62%
16:00
14°
1007.0 hPa
99%
10.3°
6
Windvlaag: 1.3 km/h
60%
17:00
14°
1007.0 hPa 2.1 mm
100%
9.1°
6
Windvlaag: 1.2 km/h
60%
18:00
13°
1006.9 hPa 3.2 mm
100%
8.7°
6
Windvlaag: 1.3 km/h
67%
19:00
13°
1006.9 hPa
97%
8.4°
6
Windvlaag: 1.3 km/h
55%
20:00
13°
1007.0 hPa
98%
8.3°
5
Windvlaag: 8.5 km/h
50%
21:00
12°
1007.2 hPa
92%
8.2°
5
Windvlaag: 7.7 km/h
55%
22:00
11°
1007.3 hPa
39%
8.0°
4
Windvlaag: 7.2 km/h
40%
23:00
11°
1007.4 hPa
27%
7.9°
4
Windvlaag: 7.7 km/h
36%
 05:05     22:13    Daglengte: 17:08 Donderdag 20 Jun
00:00
10°
1007.4 hPa
27%
7.9°
3
Windvlaag: 7.9 km/h
33%
Temp/Neerslag /Baro Onweer/Dauwpunt
    Temp Baro Neerslag Dauwpunt Wind Bewolking  
 05:05     22:12    Daglengte: 17:07 Vandaag
01:00
11°
1005.9 hPa   9.3°
4
23%
04:00
11°
1005.4 hPa   9.3°
5
55%
07:00
12°
1005.4 hPa 1.1 mm 9.6°
6
27%
10:00
13°
1006.6 hPa 1.3 mm 11.4°
6
61%
13:00
15°
1008.3 hPa 3.1 mm 11.3°
6
43%
16:00
15°
1009.1 hPa   10.9°
6
20%
19:00
15°
1009.7 hPa   9.8°
6
20%
22:00
12°
1010.7 hPa   9.7°
4
5%
 05:05     22:12    Daglengte: 17:07 Morgen
01:00
11°
1011.1 hPa   9.6°
4
7%
04:00
10°
1010.6 hPa   9.3°
4
35%
07:00
11°
1010.9 hPa   9.7°
4
59%
10:00
14°
1011.2 hPa 1.9 mm 9.3°
4
49%
13:00
16°
1011.2 hPa   11.0°
5
40%
16:00
16°
1010.9 hPa   10.6°
5
28%
19:00
15°
1010.8 hPa   10.1°
4
12%
22:00
12°
1010.6 hPa   9.8°
3
37%
 05:05     22:13    Daglengte: 17:08 Woensdag 19 Jun
01:00
10°
1010.0 hPa   9.5°
3
39%
04:00
10°
1008.8 hPa   9.6°
3
56%
07:00
11°
1008.3 hPa   9.9°
3
80%
10:00
13°
1007.5 hPa 3.0 mm 10.3°
4
87%
13:00
14°
1007.4 hPa 5.1 mm 10.7°
5
79%
16:00
14°
1007.0 hPa 6.8 mm 10.3°
6
60%
19:00
13°
1006.9 hPa 5.3 mm 8.4°
6
55%
22:00
11°
1007.3 hPa   8.0°
4
40%
 05:05     22:13    Daglengte: 17:08 Donderdag 20 Jun
01:00
10°
Voelt als: 8.0°
1007.4 hPa   7.7°
3
29%
04:00
10°
Voelt als: 7.8°
1008.3 hPa 13.6 mm 7.4°
3
41%
07:00
10°
Voelt als: 8.0°
1008.4 hPa 13.8 mm 7.5°
3
36%
10:00
11°
1009.7 hPa 14.7 mm 8.0°
4
58%
13:00
12°
1010.9 hPa 16.7 mm 8.3°
5
80%
16:00
13°
1011.7 hPa 17.7 mm 7.7°
5
59%
19:00
13°
1012.6 hPa 17.8 mm 7.2°
5
38%
22:00
11°
1013.5 hPa 17.9 mm 7.2°
3
41%
 05:05     22:13    Daglengte: 17:08 Vrijdag 21 Jun
01:00
Voelt als: 8.2°
1014.4 hPa 18.0 mm 6.8°
2
44%
04:00
10°
Voelt als: 8.4°
1015.0 hPa 18.0 mm 7.1°
2
38%
07:00
10°
1015.6 hPa 18.1 mm 7.5°
3
32%
10:00
12°
1016.7 hPa 18.1 mm 7.0°
3
51%
13:00
14°
1017.8 hPa 18.4 mm 5.8°
4
70%
16:00
14°
1017.9 hPa 18.9 mm 6.5°
2
59%
19:00
14°
1018.1 hPa 19.2 mm 6.9°
1
49%
22:00
12°
1018.4 hPa 19.2 mm 7.5°
1
56%
 05:05     22:13    Daglengte: 17:08 Zaterdag 22 Jun
01:00
Voelt als: 8.3°
1018.7 hPa 19.2 mm 7.4°
2
62%
04:00
10°
Voelt als: 8.8°
1018.3 hPa 19.2 mm 8.1°
2
76%
07:00
11°
1018.0 hPa 19.2 mm 8.9°
2
90%
10:00
14°
1017.7 hPa 19.2 mm 9.3°
3
90%
13:00
17°
1017.4 hPa 19.5 mm 8.6°
4
91%
16:00
17°
1016.6 hPa 19.8 mm 9.4°
3
83%
19:00
17°
1015.8 hPa 20.5 mm 10.5°
3
76%
22:00
15°
1016.3 hPa 20.7 mm 10.0°
3
83%
 05:06     22:14    Daglengte: 17:08 Zondag 23 Jun
01:00
12°
1016.7 hPa 20.7 mm 9.3°
3
91%
04:00
12°
1016.2 hPa 20.7 mm 8.8°
3
91%
07:00
12°
1015.8 hPa 20.7 mm 8.2°
3
92%
10:00
15°
1015.5 hPa 20.7 mm 9.2°
3
91%
13:00
17°
1015.2 hPa 20.9 mm 9.9°
4
91%
16:00
16°
1015.2 hPa 21.7 mm 10.9°
4
91%
19:00
15°
1015.4 hPa 21.9 mm 11.4°
5
92%
22:00
14°
1016.0 hPa   11.4°
4
92%
 05:06     22:14    Daglengte: 17:08 Maandag 24 Jun
01:00
13°
1016.6 hPa 43.9 mm 11.2°
4
92%
07:00
13°
1017.7 hPa 43.9 mm 11.4°
3
92%
13:00
15°
1019.6 hPa 43.9 mm 11.8°
4
92%
19:00
16°
1020.9 hPa 43.9 mm 11.8°
4
88%
 05:07     22:14    Daglengte: 17:07 Dinsdag 25 Jun
01:00
13°
1024.3 hPa 43.9 mm 11.1°
3
38%
07:00
13°
1026.6 hPa 43.9 mm 10.8°
3
26%
13:00
17°
1028.7 hPa 43.9 mm 10.1°
5
2%
19:00
15°
1029.8 hPa 43.9 mm 9.3°
6
0%
 05:07     22:13    Daglengte: 17:06 Woensdag 26 Jun
01:00
11°
1031.6 hPa 43.9 mm 9.8°
4
55%
07:00
12°
1031.3 hPa 44.0 mm 10.4°
4
46%
13:00
17°
1030.1 hPa 46.8 mm 10.1°
3
0%
19:00
16°
1022.2 hPa 0.7 mm 11.2°
2
61%
 05:08     22:13    Daglengte: 17:05 Donderdag 27 Jun
01:00
12°
1021.1 hPa 0.8 mm 10.1°
2
60%
07:00
12°
1019.1 hPa 1.1 mm 10.3°
2
61%
13:00
15°
1018.5 hPa 0.7 mm 11.1°
3
69%
19:00
15°
1017.3 hPa 1.7 mm 11.2°
3
68%
 05:08     22:13    Daglengte: 17:05 Vrijdag 28 Jun
01:00
12°
1017.3 hPa 0.8 mm 10.3°
2
61%
07:00
12°
1016.4 hPa 0.4 mm 10.4°
2
56%
13:00
16°
1016.5 hPa 0.4 mm 10.6°
3
59%
19:00
15°
1015.9 hPa 1.2 mm 10.7°
3
64%
 05:09     22:13    Daglengte: 17:04 Zaterdag 29 Jun
01:00
11°
1016.0 hPa 0.7 mm 9.6°
2
54%
07:00
12°
1015.0 hPa 1.0 mm 10.3°
2
61%
13:00
16°
1014.9 hPa 1.1 mm 10.7°
2
66%
19:00
15°
1014.3 hPa 0.9 mm 10.8°
3
67%
 05:10     22:13    Daglengte: 17:03 Zondag 30 Jun
01:00
11°
1014.5 hPa 0.5 mm 9.8°
2
55%
07:00
12°
1014.0 hPa 1.5 mm 10.5°
2
59%
13:00
15°
1014.7 hPa 1.1 mm 11.1°
3
75%
19:00
15°
1014.5 hPa 0.8 mm 11.1°
3
72%
 05:10     22:12    Daglengte: 17:02 Maandag 01 Jul
01:00
12°
1015.0 hPa 0.6 mm 10.1°
1
61%
07:00
12°
1014.5 hPa 0.4 mm 10.5°
1
64%
13:00
15°
1014.4 hPa 0.7 mm 11.6°
2
78%
19:00
15°
1013.7 hPa 1.8 mm 11.7°
3
78%
  CAPE Lifted Index Hail Supercell Tornado SRH 3km CL BTM PRES CL TOP PRES Swiss DWD icon SMHI TS
 05:05     22:12    Daglengte: 17:07 Vandaag
01:00 64 J/kg -0.1 K 0 % 0 % 0 % 0 m²/s² 0 0 1.16 2
02:00 32 J/kg 0.0 K 0 % 0 % 0 % 0 m²/s² 0 0 1.32 3
03:00 49 J/kg 0.0 K 0 % 0 % 0 % 0 m²/s² 0 0 1.71 3
04:00 39 J/kg 0.1 K 0 % 0 % 0 % 0 m²/s² 0 0 1.75 3
05:00 53 J/kg 0.2 K 0 % 0 % 0 % 0 m²/s² 0 0 1.85 3
06:00 61 J/kg 0.3 K 0 % 0 % 0 % 0 m²/s² 0 0 1.95 3
07:00 83 J/kg 0.2 K 0 % 0 % 0 % 0 m²/s² 0 0 2.03 3
08:00 196 J/kg -0.6 K 0 % 0 % 0 % 0 m²/s² 0 0 0.33 3
09:00 292 J/kg -1.3 K 0 % 0 % 0 % 0 m²/s² 0 0 -0.22 3
10:00 454 J/kg -2.1 K 0 % 0 % 0 % 0 m²/s² 0 0 -1.08 3
11:00 551 J/kg -2.5 K 0 % 0 % 0 % 0 m²/s² 0 0 -1.03 80
12:00 507 J/kg -2.2 K 0 % 0 % 0 % 0 m²/s² 0 0 -0.85 2
13:00 505 J/kg -2.3 K 0 % 0 % 0 % 0 m²/s² 0 0 -1.1 2
14:00 490 J/kg -2.2 K 0 % 0 % 0 % 0 m²/s² 0 0 -0.73 2
15:00 530 J/kg -2.4 K 0 % 0 % 0 % 0 m²/s² 0 0 -0.45 3
16:00 485 J/kg -2.1 K 0 % 0 % 0 % 0 m²/s² 0 0 -0.03 2
17:00 280 J/kg -1.2 K 0 % 0 % 0 % 0 m²/s² 0 0 1.5 2
18:00 291 J/kg -1.0 K 0 % 0 % 0 % 0 m²/s² 0 0 2.03 0
19:00 193 J/kg -0.5 K 0 % 0 % 0 % 0 m²/s² 0 0 3.34 1
20:00 112 J/kg 0.1 K 0 % 0 % 0 % 0 m²/s² 0 0 4.15 2
21:00 107 J/kg 0.5 K 0 % 0 % 0 % 0 m²/s² 0 0 4.64 2
22:00 88 J/kg 1.0 K 0 % 0 % 0 % 0 m²/s² 0 0 5.47 1
23:00 49 J/kg 2.6 K 0 % 0 % 0 % 0 m²/s² 0 0 7.43 1
 05:05     22:12    Daglengte: 17:07 Morgen
00:00 1 J/kg 4.1 K 0 % 0 % 0 % 0 m²/s² 0 0 8.48 2
01:00 2 J/kg 4.3 K 0 % 0 % 0 % 0 m²/s² 0 0 7.69 2
02:00 1 J/kg 4.6 K 0 % 0 % 0 % 0 m²/s² 0 0 7.57 2
03:00 2 J/kg 4.5 K 0 % 0 % 0 % 0 m²/s² 0 0 6.72 1
04:00 0 J/kg 4.9 K 0 % 0 % 0 % 0 m²/s² 0 0 6.7 2
05:00 0 J/kg 5.3 K 0 % 0 % 0 % 0 m²/s² 0 0 6.68 3
06:00 0 J/kg 4.9 K 0 % 0 % 0 % 0 m²/s² 0 0 6.25 3
07:00 21 J/kg 4.5 K 0 % 0 % 0 % 0 m²/s² 0 0 6 3
08:00 88 J/kg 3.6 K 0 % 0 % 0 % 0 m²/s² 0 0 5.16 3
09:00 98 J/kg 3.6 K 0 % 0 % 0 % 0 m²/s² 0 0 5.22 80
10:00 93 J/kg 3.6 K 0 % 0 % 0 % 0 m²/s² 0 0 5.22 80
11:00 100 J/kg 3.3 K 0 % 0 % 0 % 0 m²/s² 0 0 4.92 2
12:00 101 J/kg 3.2 K 0 % 0 % 0 % 0 m²/s² 0 0 4.94 2
13:00 89 J/kg 3.1 K 0 % 0 % 0 % 0 m²/s² 0 0 5.29 3
14:00 95 J/kg 3.1 K 0 % 0 % 0 % 0 m²/s² 0 0 5.77 2
15:00 99 J/kg 2.8 K 0 % 0 % 0 % 0 m²/s² 0 0 5.47 3
16:00 84 J/kg 3.1 K 0 % 0 % 0 % 0 m²/s² 0 0 5.77 3
17:00 75 J/kg 3.3 K 0 % 0 % 0 % 0 m²/s² 0 0 6.03 2
18:00 63 J/kg 3.3 K 0 % 0 % 0 % 0 m²/s² 0 0 6.21 3
19:00 43 J/kg 3.3 K 0 % 0 % 0 % 0 m²/s² 0 0 6.36 2
20:00 27 J/kg 3.6 K 0 % 0 % 0 % 0 m²/s² 0 0 6.75 2
21:00 34 J/kg 4.1 K 0 % 0 % 0 % 0 m²/s² 0 0 7.31 3
22:00 22 J/kg 4.6 K 0 % 0 % 0 % 0 m²/s² 0 0 8.17 2
23:00 8 J/kg 5.4 K 0 % 0 % 0 % 0 m²/s² 0 0 9.57 1
 05:05     22:13    Daglengte: 17:08 Woensdag 19 Jun
00:00 0 J/kg 5.9 K 0 % 0 % 0 % 0 m²/s² 0 0 10.4 0
01:00 2 J/kg 6.6 K 0 % 0 % 0 % 0 m²/s² 0 0 10.68 1
02:00 5 J/kg 7.0 K 0 % 0 % 0 % 0 m²/s² 0 0 9.67 2
03:00 3 J/kg 7.2 K 0 % 0 % 0 % 0 m²/s² 0 0 9.06 3
04:00 5 J/kg 7.3 K 0 % 0 % 0 % 0 m²/s² 0 0 8.65 3
05:00 3 J/kg 7.6 K 0 % 0 % 0 % 0 m²/s² 0 0 8.74 3
06:00 2 J/kg 6.7 K 0 % 0 % 0 % 0 m²/s² 0 0 8.05 3
07:00 79 J/kg 5.7 K 0 % 0 % 0 % 0 m²/s² 0 0 6.93 3
08:00 107 J/kg 5.5 K 0 % 0 % 0 % 0 m²/s² 0 0 6.52 3
09:00 140 J/kg 5.1 K 0 % 0 % 0 % 0 m²/s² 0 0 6.27 3
10:00 131 J/kg 5.7 K 0 % 0 % 0 % 0 m²/s² 0 0 7.02 3
11:00 121 J/kg 5.4 K 0 % 0 % 0 % 0 m²/s² 0 0 6.9 3
12:00 170 J/kg 4.6 K 0 % 0 % 0 % 0 m²/s² 0 0 5.98 3
13:00 160 J/kg 4.3 K 0 % 0 % 0 % 0 m²/s² 0 0 5.47 3
14:00 164 J/kg 3.9 K 0 % 0 % 0 % 0 m²/s² 0 0 5.07 3
15:00 167 J/kg 3.5 K 0 % 0 % 0 % 0 m²/s² 0 0 4.49 3
16:00 108 J/kg 4.1 K 0 % 0 % 0 % 0 m²/s² 0 0 5.12 3
17:00 109 J/kg 4.0 K 0 % 0 % 0 % 0 m²/s² 0 0 5.59 80
18:00 138 J/kg 3.5 K 0 % 0 % 0 % 0 m²/s² 0 0 6.2 3
19:00 99 J/kg 4.1 K 0 % 0 % 0 % 0 m²/s² 0 0 8.78 2
20:00 60 J/kg 4.8 K 0 % 0 % 0 % 0 m²/s² 0 0 10.41 1
21:00 77 J/kg 4.4 K 0 % 0 % 0 % 0 m²/s² 0 0 9.71 1
22:00 101 J/kg 4.1 K 0 % 0 % 0 % 0 m²/s² 0 0 9.14 1
23:00 95 J/kg 4.3 K 0 % 0 % 0 % 0 m²/s² 0 0 9.19 2
 05:05     22:13    Daglengte: 17:08 Donderdag 20 Jun
00:00 94 J/kg 4.4 K 0 % 0 % 0 % 0 m²/s² 0 0 9.05 2
Temp Baro Wind Neerslag
  EWN Forecast EWN WRFDA DWD ICON FMI HIRLAM MET Norway GFS
 05:05     22:12    Daglengte: 17:07 Vandaag
01:00 10.7° 1005.9 hPa 4.2 m/s 0.0 mm 9.6° 1004.3 hPa 4.5 m/s 4.5 mm 11.1° 1005.9 hPa 4.7 m/s -1.4 mm 12.7° 1006.5 hPa 3.5 m/s 0.0 mm 10.2° 1005.5 hPa 4.2 m/s 0.0 mm 8.9° 1005.3 hPa 4.0 m/s
04:00 10.5° 1005.4 hPa 5.0 m/s 0.0 mm 9.8° 1003.7 hPa 5.7 m/s 13.6 mm 10.9° 1005.3 hPa 5.0 m/s 0.0 mm 12.5° 1007.0 hPa 3.1 m/s 0.0 mm 10.3° 1005.2 hPa 5.2 m/s 0.4 mm 9.8° 1004.9 hPa 4.6 m/s
07:00 11.7° 1005.4 hPa 6.4 m/s 1.1 mm 11.8° 1003.5 hPa 7.8 m/s 13.7 mm 11.7° 1004.7 hPa 8.3 m/s 0.0 mm 13.3° 1007.4 hPa 3.5 m/s 0.0 mm 11.1° 1005.3 hPa 5.9 m/s 0.6 mm 10.8° 1004.8 hPa 6.1 m/s
10:00 13.3° 1006.6 hPa 6.4 m/s 1.3 mm 12.8° 1004.6 hPa 7.5 m/s 14.3 mm 13.3° 1006.7 hPa 8.7 m/s 0.0 mm 13.7° 1007.8 hPa 4.3 m/s 0.0 mm 13.1° 1006.3 hPa 5.1 m/s 1.1 mm 13.0° 1006.1 hPa 8.1 m/s
13:00 14.9° 1008.3 hPa 5.6 m/s 3.1 mm 14.6° 1006.2 hPa 6.0 m/s 17.1 mm 15.4° 1008.1 hPa 8.1 m/s 0.1 mm 15.2° 1008.4 hPa 4.2 m/s 0.0 mm 15.0° 1008.4 hPa 4.8 m/s 0.7 mm 14.9° 1007.7 hPa 7.3 m/s
16:00 15.5° 1009.1 hPa 5.7 m/s 0.0 mm 15.5° 1007.4 hPa 6.7 m/s 22.6 mm 15.4° 1009.3 hPa 8.0 m/s 0.0 mm 15.9° 1009.0 hPa 4.4 m/s 0.0 mm 15.0° 1009.3 hPa 5.1 m/s 1.4 mm 15.3° 1009.0 hPa 6.6 m/s
19:00 14.6° 1009.7 hPa 5.5 m/s 0.0 mm 14.3° 1008.1 hPa 6.2 m/s 24.1 mm 14.8° 1009.5 hPa 7.2 m/s 0.0 mm 16.3° 1010.0 hPa 4.7 m/s 0.0 mm 13.9° 1009.8 hPa 4.7 m/s 1.5 mm 14.0° 1009.4 hPa 6.2 m/s
22:00 12.1° 1010.7 hPa 4.2 m/s 0.0 mm 12.0° 1008.7 hPa 4.5 m/s 24.3 mm 12.3° 1010.8 hPa 4.4 m/s 0.0 mm 13.5° 1011.5 hPa 4.1 m/s 0.0 mm 11.4° 1010.8 hPa 3.1 m/s 0.0 mm 10.1° 1010.2 hPa 3.7 m/s
 05:05     22:12    Daglengte: 17:07 Morgen
01:00 10.6° 1011.1 hPa 3.7 m/s 0.0 mm 8.8° 1009.3 hPa 4.1 m/s 24.6 mm 10.8° 1010.8 hPa 4.5 m/s 0.0 mm 11.1° 1012.0 hPa 2.3 m/s 0.0 mm 10.0° 1011.1 hPa 3.1 m/s 0.0 mm 8.7° 1010.6 hPa 4.5 m/s
04:00 10.4° 1010.6 hPa 4.2 m/s 0.0 mm 9.2° 1008.6 hPa 4.7 m/s 24.6 mm 10.5° 1010.4 hPa 4.9 m/s 0.0 mm 10.8° 1011.9 hPa 2.4 m/s 0.0 mm 10.0° 1010.6 hPa 3.8 m/s 0.0 mm 8.7° 1010.2 hPa 5.1 m/s
07:00 11.4° 1010.9 hPa 3.9 m/s 0.0 mm 11.8° 1008.9 hPa 5.9 m/s 24.6 mm 11.4° 1010.1 hPa 4.4 m/s 0.1 mm 11.0° 1012.4 hPa 2.2 m/s 0.0 mm 11.3° 1010.9 hPa 3.5 m/s 0.0 mm 10.8° 1010.8 hPa 4.4 m/s
10:00 13.8° 1011.2 hPa 4.5 m/s 1.9 mm 13.9° 1009.3 hPa 6.0 m/s 25.1 mm 13.3° 1011.1 hPa 5.8 m/s 0.8 mm 15.4° 1012.5 hPa 3.5 m/s 0.0 mm 13.6° 1011.1 hPa 4.3 m/s 0.0 mm 13.1° 1011.1 hPa 4.7 m/s
13:00 15.8° 1011.2 hPa 4.7 m/s 0.0 mm 15.8° 1009.5 hPa 4.7 m/s 25.5 mm 15.8° 1010.7 hPa 6.7 m/s 0.1 mm 15.3° 1012.8 hPa 4.7 m/s 0.0 mm 15.9° 1011.2 hPa 3.7 m/s 0.4 mm 15.3° 1011.1 hPa 4.7 m/s
16:00 15.8° 1010.9 hPa 4.8 m/s 0.0 mm 16.0° 1009.2 hPa 5.3 m/s 25.7 mm 16.3° 1010.2 hPa 6.6 m/s 0.0 mm 15.0° 1012.9 hPa 4.3 m/s 0.0 mm 15.6° 1010.9 hPa 3.9 m/s 0.5 mm 15.8° 1010.8 hPa 5.2 m/s
19:00 14.9° 1010.8 hPa 4.4 m/s 0.0 mm 15.0° 1008.9 hPa 5.1 m/s 25.7 mm 15.2° 1010.2 hPa 6.0 m/s 0.0 mm 15.7° 1013.1 hPa 3.4 m/s 0.0 mm 14.2° 1010.7 hPa 3.4 m/s 0.5 mm 14.5° 1010.2 hPa 4.4 m/s
22:00 12.0° 1010.6 hPa 2.7 m/s 0.0 mm 10.3° 1009.0 hPa 2.4 m/s 25.7 mm 13.0° 1010.2 hPa 3.4 m/s 0.0 mm 11.9° 1010.8 hPa 1.7 m/s 0.0 mm 10.3° 1010.5 hPa 2.0 m/s
 05:05     22:13    Daglengte: 17:08 Woensdag 19 Jun
01:00 10.4° 1010.0 hPa 2.6 m/s 0.0 mm 7.7° 1008.3 hPa 2.8 m/s 25.7 mm 11.1° 1009.7 hPa 2.5 m/s 0.0 mm 10.3° 1010.2 hPa 2.0 m/s 0.0 mm 8.6° 1009.7 hPa 2.0 m/s
04:00 10.1° 1008.8 hPa 2.6 m/s 0.0 mm 7.1° 1007.2 hPa 2.8 m/s 25.7 mm 11.1° 1009.0 hPa 2.1 m/s 0.0 mm 10.1° 1008.9 hPa 2.6 m/s 0.0 mm 8.0° 1008.7 hPa 2.7 m/s
07:00 11.4° 1008.3 hPa 3.3 m/s 0.0 mm 11.5° 1006.4 hPa 3.8 m/s 25.9 mm 11.8° 1008.6 hPa 2.8 m/s 0.0 mm 11.0° 1008.3 hPa 3.3 m/s 0.0 mm 9.4° 1007.9 hPa 2.8 m/s
10:00 13.2° 1007.5 hPa 3.9 m/s 3.0 mm 13.6° 1006.0 hPa 4.9 m/s 26.4 mm 13.4° 1008.2 hPa 3.7 m/s 0.0 mm 12.9° 1007.6 hPa 3.8 m/s 0.0 mm 13.2° 1007.9 hPa 3.8 m/s
13:00 14.0° 1007.4 hPa 5.5 m/s 5.1 mm 14.2° 1006.0 hPa 6.5 m/s 26.9 mm 15.0° 1007.4 hPa 6.7 m/s 0.2 mm 13.6° 1007.6 hPa 4.4 m/s 0.6 mm 13.5° 1007.7 hPa 5.9 m/s
16:00 14.3° 1007.0 hPa 5.9 m/s 6.8 mm 14.4° 1005.9 hPa 6.4 m/s 27.9 mm 14.5° 1007.2 hPa 7.4 m/s 0.1 mm 14.2° 1007.1 hPa 5.0 m/s 0.9 mm 14.2° 1007.2 hPa 5.7 m/s
19:00 13.0° 1006.9 hPa 5.9 m/s 5.3 mm 13.5° 1005.6 hPa 6.4 m/s 28.3 mm 13.2° 1006.7 hPa 6.2 m/s 0.3 mm 12.7° 1007.3 hPa 5.5 m/s 0.6 mm 12.9° 1007.0 hPa 5.8 m/s
22:00 11.2° 1007.3 hPa 4.0 m/s 0.0 mm 10.3° 1006.2 hPa 3.3 m/s 28.5 mm 11.6° 1007.0 hPa 3.8 m/s 0.1 mm 11.2° 1007.8 hPa 4.3 m/s 9.2° 1007.7 hPa 3.3 m/s
 05:05     22:13    Daglengte: 17:08 Donderdag 20 Jun
01:00 9.6° 1007.4 hPa 3.2 m/s 0.0 mm 8.2° 1005.7 hPa 3.4 m/s 28.6 mm 10.3° 1006.8 hPa 3.3 m/s 0.0 mm 9.7° 1008.2 hPa 3.1 m/s 7.5° 1007.0 hPa 3.1 m/s
04:00 9.6° 1008.3 hPa 3.3 m/s 13.6 mm 9.8° 1008.5 hPa 3.3 m/s 7.2° 1006.6 hPa 3.4 m/s 13.6 mm
07:00 9.8° 1008.4 hPa 3.4 m/s 13.8 mm 9.8° 1008.6 hPa 3.4 m/s 9.6° 1006.5 hPa 3.8 m/s 13.8 mm
10:00 11.2° 1009.7 hPa 4.5 m/s 14.7 mm 11.1° 1009.9 hPa 4.4 m/s 12.6° 1007.3 hPa 5.5 m/s 14.7 mm
13:00 12.5° 1010.9 hPa 5.4 m/s 16.7 mm 12.4° 1011.2 hPa 5.4 m/s 13.4° 1008.1 hPa 5.9 m/s 16.7 mm
16:00 12.6° 1011.7 hPa 5.1 m/s 17.7 mm 12.4° 1012.0 hPa 5.0 m/s 14.0° 1009.0 hPa 6.8 m/s 17.7 mm
19:00 12.5° 1012.6 hPa 4.6 m/s 17.8 mm 12.5° 1012.8 hPa 4.5 m/s 12.6° 1009.9 hPa 6.0 m/s 17.8 mm
22:00 10.8° 1013.5 hPa 3.4 m/s 17.9 mm 11.0° 1013.7 hPa 3.4 m/s 8.9° 1011.4 hPa 3.5 m/s 17.9 mm
 05:05     22:13    Daglengte: 17:08 Vrijdag 21 Jun
01:00 9.3° 1014.4 hPa 2.3 m/s 18.0 mm 9.5° 1014.6 hPa 2.2 m/s 7.1° 1012.7 hPa 2.9 m/s 18.0 mm
04:00 9.6° 1015.0 hPa 2.4 m/s 18.0 mm 9.8° 1015.2 hPa 2.4 m/s 6.7° 1013.7 hPa 2.3 m/s 18.0 mm
07:00 10.1° 1015.6 hPa 2.5 m/s 18.1 mm 10.2° 1015.7 hPa 2.6 m/s 8.8° 1014.4 hPa 1.7 m/s 18.1 mm
10:00 12.2° 1016.7 hPa 3.3 m/s 18.1 mm 12.1° 1016.8 hPa 3.4 m/s 12.2° 1015.7 hPa 2.0 m/s 18.1 mm
13:00 14.0° 1017.8 hPa 4.0 m/s 18.4 mm 14.1° 1017.9 hPa 4.2 m/s 13.3° 1016.2 hPa 2.4 m/s 18.4 mm
16:00 14.3° 1017.9 hPa 2.4 m/s 18.9 mm 14.3° 1018.0 hPa 2.2 m/s 13.4° 1016.7 hPa 3.6 m/s 18.9 mm
19:00 14.4° 1018.1 hPa 0.6 m/s 19.2 mm 14.6° 1018.2 hPa 0.3 m/s 12.0° 1016.8 hPa 3.4 m/s 19.2 mm
22:00 11.7° 1018.4 hPa 1.1 m/s 19.2 mm 11.9° 1018.5 hPa 1.1 m/s 8.4° 1017.9 hPa 2.2 m/s 19.2 mm
 05:05     22:13    Daglengte: 17:08 Zaterdag 22 Jun
01:00 9.1° 1018.7 hPa 1.8 m/s 19.2 mm 9.3° 1018.7 hPa 1.8 m/s 6.8° 1018.2 hPa 1.6 m/s 19.2 mm
04:00 9.7° 1018.3 hPa 2.1 m/s 19.2 mm 10.0° 1018.4 hPa 2.2 m/s 7.0° 1018.0 hPa 1.3 m/s 19.2 mm
07:00 10.5° 1018.0 hPa 2.5 m/s 19.2 mm 10.7° 1018.0 hPa 2.6 m/s 8.8° 1018.0 hPa 1.1 m/s 19.2 mm
10:00 13.9° 1017.7 hPa 3.4 m/s 19.2 mm 14.0° 1017.6 hPa 3.5 m/s 12.3° 1018.4 hPa 1.9 m/s 19.2 mm
13:00 17.0° 1017.4 hPa 4.3 m/s 19.5 mm 17.3° 1017.3 hPa 4.5 m/s 14.2° 1018.5 hPa 2.4 m/s 19.5 mm
16:00 17.4° 1016.6 hPa 3.3 m/s 19.8 mm 17.6° 1016.5 hPa 3.5 m/s 16.0° 1018.1 hPa 2.1 m/s 19.8 mm
19:00 17.4° 1015.8 hPa 2.5 m/s 20.5 mm 17.8° 1015.6 hPa 2.4 m/s 13.3° 1017.8 hPa 3.7 m/s 20.5 mm
22:00 14.9° 1016.3 hPa 2.8 m/s 20.7 mm 15.2° 1016.0 hPa 2.9 m/s 11.7° 1018.7 hPa 1.8 m/s 20.7 mm
 05:06     22:14    Daglengte: 17:08 Zondag 23 Jun
01:00 12.4° 1016.7 hPa 3.3 m/s 20.7 mm 12.5° 1016.5 hPa 3.4 m/s 11.0° 1018.8 hPa 1.8 m/s 20.7 mm
04:00 12.2° 1016.2 hPa 2.9 m/s 20.7 mm 12.3° 1016.0 hPa 3.0 m/s 10.3° 1018.5 hPa 1.6 m/s 20.7 mm
07:00 12.1° 1015.8 hPa 2.6 m/s 20.7 mm 12.2° 1015.5 hPa 2.7 m/s 10.4° 1019.0 hPa 1.4 m/s 20.7 mm
10:00 14.7° 1015.5 hPa 3.2 m/s 20.7 mm 14.8° 1015.1 hPa 3.2 m/s 14.0° 1019.8 hPa 3.2 m/s 20.7 mm
13:00 17.3° 1015.2 hPa 3.6 m/s 20.9 mm 17.4° 1014.7 hPa 3.6 m/s 16.0° 1020.3 hPa 4.2 m/s 20.9 mm
16:00 16.1° 1015.2 hPa 4.3 m/s 21.7 mm 16.1° 1014.8 hPa 4.2 m/s 15.0° 1020.1 hPa 5.0 m/s 21.7 mm
19:00 14.9° 1015.4 hPa 4.9 m/s 21.9 mm 14.9° 1014.9 hPa 4.9 m/s 15.4° 1020.6 hPa 5.4 m/s 21.9 mm
22:00 13.7° 1016.0 hPa 4.3 m/s 22.0 mm 13.9° 1015.5 hPa 4.3 m/s 12.0° 1021.8 hPa 3.8 m/s 22.0 mm
 05:06     22:14    Daglengte: 17:08 Maandag 24 Jun
01:00 12.7° 1016.6 hPa 3.8 m/s 22.0 mm 12.9° 1016.1 hPa 3.8 m/s 10.4° 1022.5 hPa 3.6 m/s 22.0 mm
07:00 12.6° 1017.7 hPa 2.9 m/s 22.0 mm 12.8° 1017.2 hPa 2.9 m/s 10.5° 1022.9 hPa 3.1 m/s 22.0 mm
13:00 14.8° 1019.6 hPa 3.7 m/s 22.0 mm 14.7° 1019.2 hPa 3.6 m/s 15.8° 1023.5 hPa 4.9 m/s 22.0 mm
19:00 15.8° 1020.9 hPa 4.2 m/s 22.0 mm 16.0° 1020.7 hPa 4.0 m/s 13.4° 1023.1 hPa 6.2 m/s 22.0 mm
 05:07     22:14    Daglengte: 17:07 Dinsdag 25 Jun
01:00 12.6° 1024.3 hPa 3.1 m/s 22.0 mm 12.9° 1024.4 hPa 3.1 m/s 9.7° 1023.4 hPa 3.5 m/s 22.0 mm
07:00 12.8° 1026.6 hPa 2.8 m/s 22.0 mm 13.0° 1026.9 hPa 2.7 m/s 10.7° 1022.9 hPa 3.7 m/s 22.0 mm
13:00 16.7° 1028.7 hPa 4.9 m/s 22.0 mm 16.9° 1029.2 hPa 4.7 m/s 14.0° 1023.3 hPa 6.9 m/s 22.0 mm
19:00 14.6° 1029.8 hPa 5.6 m/s 22.0 mm 14.8° 1030.4 hPa 5.4 m/s 12.6° 1023.5 hPa 7.8 m/s 22.0 mm
 05:07     22:13    Daglengte: 17:06 Woensdag 26 Jun
01:00 11.1° 1031.6 hPa 3.6 m/s 22.0 mm 11.3° 1032.2 hPa 3.5 m/s 9.2° 1024.8 hPa 4.3 m/s 22.0 mm
07:00 12.2° 1031.3 hPa 3.6 m/s 22.0 mm 12.3° 1031.9 hPa 3.5 m/s 11.1° 1024.2 hPa 4.9 m/s 22.0 mm
13:00 16.8° 1030.1 hPa 3.3 m/s 24.0 mm 17.1° 1030.7 hPa 2.9 m/s 13.3° 1023.3 hPa 7.5 m/s 24.0 mm
19:00 15.8° 1022.2 hPa 2.1 m/s 0.7 mm
 05:08     22:13    Daglengte: 17:05 Donderdag 27 Jun
01:00 11.5° 1021.1 hPa 1.7 m/s 0.8 mm
07:00 11.9° 1019.1 hPa 1.8 m/s 1.1 mm
13:00 15.4° 1018.5 hPa 2.5 m/s 0.7 mm
19:00 15.2° 1017.3 hPa 3.0 m/s 1.7 mm
 05:08     22:13    Daglengte: 17:05 Vrijdag 28 Jun
01:00 11.6° 1017.3 hPa 2.0 m/s 0.8 mm
07:00 12.1° 1016.4 hPa 1.8 m/s 0.4 mm
13:00 15.8° 1016.5 hPa 3.0 m/s 0.4 mm
19:00 15.2° 1015.9 hPa 3.2 m/s 1.2 mm
 05:09     22:13    Daglengte: 17:04 Zaterdag 29 Jun
01:00 10.9° 1016.0 hPa 1.7 m/s 0.7 mm
07:00 11.7° 1015.0 hPa 1.5 m/s 1.0 mm
13:00 15.5° 1014.9 hPa 2.4 m/s 1.1 mm
19:00 15.3° 1014.3 hPa 3.0 m/s 0.9 mm
 05:10     22:13    Daglengte: 17:03 Zondag 30 Jun
01:00 11.4° 1014.5 hPa 2.2 m/s 0.5 mm
07:00 11.9° 1014.0 hPa 1.8 m/s 1.5 mm
13:00 15.2° 1014.7 hPa 2.5 m/s 1.1 mm
19:00 15.3° 1014.5 hPa 2.8 m/s 0.8 mm
 05:10     22:12    Daglengte: 17:02 Maandag 01 Jul
01:00 11.6° 1015.0 hPa 1.0 m/s 0.6 mm
07:00 11.7° 1014.5 hPa 0.9 m/s 0.4 mm
13:00 15.4° 1014.4 hPa 1.9 m/s 0.7 mm
19:00 15.2° 1013.7 hPa 2.7 m/s 1.8 mm
FMI Hirlam - 7.5 km EWN WRFDA - 12 km DWD ICON - 7 km GFS - 25 km Basiskaart






























































Updatetijd (Europe/Amsterdam) Resolutie Lengte Stap
FMI Hirlam 01:15, 07:15, 13:15, 19:15 7.5 km 49h 1h
EWN WRFDA 22:15, 04:15, 10:15, 16:15 12 km 73h 1h
DWD ICON 23:45, 05:45, 11:45, 17:45 7 km 75h 1h
GFS 20:30, 02:30, 08:30, 14:30 25 km 237h 3h
30+ mm
25-30 mm
20-25 mm
15-20 mm
10-15 mm
6-10 mm
4-6 mm
2-4 mm
1-2 mm
0.5-1 mm
0.2-0.5 mm
0.1-0.2 mm
30+ mm
25-30 mm
20-25 mm
15-20 mm
10-15 mm
6-10 mm
4-6 mm
2-4 mm
1-2 mm
0.5-1 mm
0.2-0.5 mm
0.1-0.2 mm
Sneeuwval
Natte sneeuw
Hagel
Vorst
30+ mm
25-30 mm
20-25 mm
15-20 mm
10-15 mm
6-10 mm
4-6 mm
2-4 mm
1-2 mm
0.5-1 mm
0.2-0.5 mm
0.1-0.2 mm
Sneeuwval
Natte sneeuw
Hagel
Vorst
Onweer
50 mm
40 mm
30 mm
26 mm
22 mm
18 mm
14 mm
10 mm
9 mm
8 mm
7 mm
6 mm
5 mm
4.5 mm
4 mm
3.5 mm
3 mm
2.5 mm
2 mm
1.5 mm
1 mm
0.8 mm
0.6 mm
0.4 mm
0.2 mm
0.05 mm
35°
30°
25°
20°
15°
10°
-5°
-10°
-15°
-20°
-25°
-30°
-35°
120> km/h
105 km/h
90 km/h
75 km/h
60 km/h
50 km/h
40 km/h
30 km/h
20 km/h
10 km/h
0 km/h
2600 J/kg
2400 J/kg
2200 J/kg
2000 J/kg
1800 J/kg
1600 J/kg
1400 J/kg
1200 J/kg
1000 J/kg
800 J/kg
600 J/kg
400 J/kg
200 J/kg
70 dBZ
65 dBZ
60 dBZ
55 dBZ
50 dBZ
45 dBZ
40 dBZ
35 dBZ
30 dBZ
25 dBZ
20 dBZ
15 dBZ
10 dBZ
5 dBZ
-1 K
-2 K
-3 K
-4 K
-5 K
-6 K
-7 K
-8 K
-9 K
950 m²/s²
900 m²/s²
850 m²/s²
800 m²/s²
750 m²/s²
700 m²/s²
650 m²/s²
600 m²/s²
550 m²/s²
500 m²/s²
450 m²/s²
400 m²/s²
350 m²/s²
300 m²/s²
250 m²/s²
200 m²/s²
150 m²/s²
100 m²/s²
46 m/s
44 m/s
42 m/s
40 m/s
38 m/s
36 m/s
34 m/s
32 m/s
30 m/s
28 m/s
26 m/s
24 m/s
22 m/s
20 m/s
16 m/s
12 m/s
8 m/s
4 m/s
30 m/s
28 m/s
26 m/s
24 m/s
22 m/s
20 m/s
18 m/s
16 m/s
14 m/s
12 m/s
10 m/s
8 m/s
6 m/s
4 m/s
2 m/s
3.0
2.8
2.6
2.4
2.2
2.0
1.8
1.6
1.4
1.2
1.0
0.8
0.6
0.4
0.2
15
14
13
12
11
10
9
8
7
6
5
4
3
2
1
90%
80%
70%
60%
50%
40%
30%
20%
10%
42
40
38
36
34
32
30
28
26
24
22
20
18
16
14
12
90+ cm
80-90 cm
70-80 cm
60-70 cm
50-60 cm
40-50 cm
30-40 cm
20-30 cm
10-20 cm
1-10 cm
Sneeuwval
Natte sneeuw
Regen
>120 mm
115 mm
110 mm
105 mm
100 mm
95 mm
90 mm
85 mm
80 mm
75 mm
70 mm
65 mm
60 mm
55 mm
50 mm
45 mm
45 mm
40 mm
35 mm
30 mm
25 mm
20 mm
15 mm
10 mm
5 mm
0.1 mm
960 hPa
880 hPa
800 hPa
720 hPa
640 hPa
560 hPa
584 gpdm
568 gpdm
552 gpdm
536 gpdm
520 gpdm
504 gpdm
488 gpdm